| time (UTC) | temp C | wind direction | speed KPH | gust KPH | rain 1hr cm | rain 24hr cm | rain mn cm | humidity % | barometer mb |
| 20260502191003 | 12 | 345 | 9.7 | 22.5 | 0.00 | 0.00 | 0.00 | 35 | 1021.6 |
| 20260502190004 | 12 | 309 | 8.0 | 46.7 | 0.00 | 0.00 | 0.00 | 38 | 1021.8 |
| 20260502185003 | 12 | 279 | 8.0 | 33.8 | 0.00 | 0.00 | 0.00 | 37 | 1021.7 |
| 20260502184004 | 11 | 295 | 4.8 | 20.9 | 0.00 | 0.00 | 0.00 | 36 | 1022.1 |
| 20260502183004 | 11 | 304 | 20.9 | 32.2 | 0.00 | 0.00 | 0.00 | 37 | 1022.3 |
| 20260502181004 | 11 | 276 | 8.0 | 29.0 | 0.00 | 0.00 | 0.00 | 37 | 1022.5 |
| 20260502164004 | 10 | 289 | 8.0 | 25.7 | 0.00 | 0.00 | 0.00 | 40 | 1023.5 |
| 20260502163004 | 10 | 116 | 9.7 | 16.1 | 0.00 | 0.00 | 0.00 | 41 | 1023.6 |
| 20260502162004 | 10 | 264 | 4.8 | 12.9 | 0.00 | 0.00 | 0.00 | 41 | 1023.9 |
| 20260502152004 | 8 | 248 | 4.8 | 12.9 | 0.00 | 0.00 | 0.00 | 43 | 1024.4 |
| 20260502151003 | 9 | 243 | 4.8 | 12.9 | 0.00 | 0.00 | 0.00 | 42 | 1024.6 |
| 20260502123004 | 2 | 150 | 1.6 | 9.7 | 0.00 | 0.00 | 0.00 | 76 | 1025.5 |
| 20260502122003 | 1 | 277 | 3.2 | 8.0 | 0.00 | 0.00 | 0.00 | 77 | 1025.5 |
| 20260502121004 | 1 | 14 | 4.8 | 9.7 | 0.00 | 0.00 | 0.00 | 82 | 1025.4 |
| 20260502115004 | 0 | 148 | 8.0 | 11.3 | 0.00 | 0.00 | 0.00 | 91 | 1025.4 |
| 20260502114003 | -1 | 180 | 4.8 | 9.7 | 0.00 | 0.00 | 0.00 | 95 | 1025.3 |
| 20260502113004 | -1 | 129 | 4.8 | 9.7 | 0.00 | 0.00 | 0.00 | 97 | 1025.3 |
| 20260502112003 | -1 | 107 | 8.0 | 12.9 | 0.00 | 0.03 | 0.00 | 97 | 1025.5 |
| 20260502111004 | -1 | 146 | 9.7 | 11.3 | 0.00 | 0.05 | 0.00 | 98 | 1025.0 |
| 20260502105003 | -2 | 144 | 3.2 | 8.0 | 0.00 | 0.05 | 0.00 | 98 | 1025.0 |
| 20260502104004 | -2 | 9 | 4.8 | 8.0 | 0.00 | 0.05 | 0.00 | 98 | 1025.1 |
| 20260502103003 | -2 | 61 | 3.2 | 11.3 | 0.00 | 0.05 | 0.00 | 98 | 1025.1 |
| 20260502102003 | -2 | 78 | 9.7 | 11.3 | 0.00 | 0.05 | 0.00 | 98 | 1025.1 |
| 20260502101003 | -2 | 147 | 3.2 | 11.3 | 0.00 | 0.05 | 0.00 | 98 | 1024.9 |
| 20260502091004 | -1 | 102 | 3.2 | 4.8 | 0.00 | 0.05 | 0.00 | 97 | 1024.9 |
| 20260502071004 | 0 | 193 | 3.2 | 8.0 | 0.00 | 0.13 | 0.00 | 90 | 1024.4 |
| 20260502070004 | 0 | 185 | 3.2 | 8.0 | 0.00 | 0.13 | 0.00 | 90 | 1024.3 |
| 20260502065004 | 0 | 174 | 3.2 | 8.0 | 0.00 | 0.15 | 0.00 | 90 | 1024.6 |
| 20260502064004 | 1 | 166 | 3.2 | 8.0 | 0.00 | 0.15 | 0.00 | 90 | 1024.6 |
| 20260502062004 | 1 | 179 | 4.8 | 8.0 | 0.00 | 0.15 | 0.00 | 89 | 1024.6 |
| 20260502061004 | 1 | 197 | 4.8 | 8.0 | 0.00 | 0.15 | 0.00 | 90 | 1024.6 |
| 20260502055004 | 0 | 194 | 3.2 | 4.8 | 0.00 | 0.15 | 0.00 | 90 | 1024.7 |
| 20260502053004 | 0 | 169 | 1.6 | 3.2 | 0.00 | 0.15 | 0.00 | 90 | 1024.5 |
| 20260502052004 | 1 | 169 | 1.6 | 3.2 | 0.00 | 0.15 | 0.00 | 89 | 1024.5 |
| 20260502051004 | 1 | 157 | 1.6 | 4.8 | 0.00 | 0.15 | 0.00 | 89 | 1024.5 |
| 20260502050003 | 0 | 166 | 3.2 | 4.8 | 0.00 | 0.15 | 0.00 | 89 | 1024.5 |
| 20260502045004 | 1 | 152 | 3.2 | 4.8 | 0.00 | 0.15 | 0.15 | 89 | 1024.5 |
| 20260502044004 | 1 | 166 | 3.2 | 8.0 | 0.00 | 0.15 | 0.15 | 89 | 1024.6 |
| 20260502043003 | 1 | 136 | 3.2 | 8.0 | 0.00 | 0.15 | 0.15 | 88 | 1024.2 |
| 20260502042004 | 1 | 142 | 3.2 | 9.7 | 0.00 | 0.15 | 0.15 | 87 | 1024.5 |
| 20260502041004 | 1 | 131 | 4.8 | 8.0 | 0.00 | 0.15 | 0.15 | 86 | 1024.5 |
| 20260502040004 | 1 | 137 | 4.8 | 8.0 | 0.00 | 0.15 | 0.15 | 85 | 1024.4 |
| 20260502035003 | 1 | 131 | 3.2 | 4.8 | 0.00 | 0.15 | 0.15 | 85 | 1024.5 |
| 20260502034003 | 1 | 144 | 1.6 | 3.2 | 0.00 | 0.15 | 0.15 | 86 | 1024.4 |
| 20260502033004 | 1 | 156 | 1.6 | 4.8 | 0.00 | 0.15 | 0.15 | 85 | 1024.5 |
| 20260502031003 | 1 | 105 | 1.6 | 3.2 | 0.00 | 0.23 | 0.15 | 86 | 1024.6 |
| 20260502030004 | 1 | 95 | 1.6 | 3.2 | 0.00 | 0.23 | 0.15 | 84 | 1024.6 |
| 20260502025004 | 1 | 122 | 3.2 | 3.2 | 0.00 | 0.23 | 0.15 | 82 | 1024.7 |
| 20260502024003 | 2 | 132 | 3.2 | 4.8 | 0.00 | 0.23 | 0.15 | 81 | 1024.5 |
| 20260502023004 | 2 | 116 | 3.2 | 4.8 | 0.00 | 0.23 | 0.15 | 80 | 1024.6 |
| 20260502022004 | 2 | 118 | 3.2 | 3.2 | 0.00 | 0.23 | 0.15 | 78 | 1024.7 |
| 20260502021004 | 2 | 101 | 3.2 | 4.8 | 0.00 | 0.23 | 0.15 | 76 | 1024.4 |
| 20260502020004 | 2 | 122 | 4.8 | 4.8 | 0.00 | 0.23 | 0.15 | 76 | 1024.4 |
| 20260502015004 | 2 | 93 | 3.2 | 3.2 | 0.00 | 0.23 | 0.15 | 73 | 1024.6 |
| 20260502014003 | 3 | 90 | 3.2 | 3.2 | 0.00 | 0.23 | 0.15 | 70 | 1024.3 |
| 20260502013004 | 4 | 121 | 3.2 | 8.0 | 0.00 | 0.23 | 0.15 | 65 | 1024.2 |
| 20260502012004 | 5 | 73 | 3.2 | 8.0 | 0.00 | 0.23 | 0.15 | 59 | 1024.2 |
| 20260502011004 | 5 | 23 | 3.2 | 8.0 | 0.00 | 0.23 | 0.15 | 57 | 1024.1 |
| 20260502010004 | 5 | 102 | 3.2 | 9.7 | 0.00 | 0.23 | 0.15 | 59 | 1024.2 |
| 20260502005004 | 5 | 343 | 3.2 | 9.7 | 0.00 | 0.23 | 0.15 | 57 | 1024.1 |
| 20260502004004 | 5 | 39 | 8.0 | 9.7 | 0.00 | 0.23 | 0.15 | 56 | 1024.3 |
| 20260502003004 | 5 | 79 | 3.2 | 9.7 | 0.00 | 0.25 | 0.15 | 57 | 1024.1 |
| 20260502002002 | 5 | 25 | 6.4 | 11.3 | 0.00 | 0.25 | 0.15 | 56 | 1024.3 |
| 20260502001002 | 5 | 16 | 4.8 | 11.3 | 0.00 | 0.25 | 0.15 | 55 | 1024.0 |
| 20260502000002 | 5 | 22 | 8.0 | 12.9 | 0.00 | 0.25 | 0.15 | 56 | 1024.0 |
| 20260501235002 | 5 | 73 | 8.0 | 14.5 | 0.00 | 0.25 | 0.15 | 56 | 1023.8 |
| 20260501234002 | 5 | 31 | 8.0 | 20.9 | 0.00 | 0.25 | 0.15 | 61 | 1024.2 |
| 20260501232002 | 5 | 40 | 4.8 | 16.1 | 0.00 | 0.25 | 0.15 | 58 | 1023.8 |
| 20260501231002 | 6 | 53 | 4.8 | 14.5 | 0.00 | 0.25 | 0.15 | 57 | 1024.1 |
| 20260501230002 | 5 | 344 | 9.7 | 19.3 | 0.00 | 0.25 | 0.15 | 56 | 1024.0 |
| 20260501225002 | 6 | 34 | 6.4 | 14.5 | 0.00 | 0.25 | 0.15 | 63 | 1023.8 |
| 20260501224002 | 6 | 39 | 8.0 | 12.9 | 0.00 | 0.25 | 0.15 | 62 | 1024.0 |
| 20260501223002 | 6 | 85 | 6.4 | 11.3 | 0.00 | 0.25 | 0.15 | 61 | 1023.9 |
| 20260501222002 | 6 | 65 | 8.0 | 19.3 | 0.00 | 0.25 | 0.15 | 62 | 1024.0 |
| 20260501221002 | 6 | 30 | 6.4 | 16.1 | 0.00 | 0.25 | 0.15 | 63 | 1023.7 |
| 20260501215001 | 6 | 310 | 11.3 | 20.9 | 0.00 | 0.25 | 0.15 | 56 | 1023.7 |
| 20260501214002 | 6 | 304 | 11.3 | 24.1 | 0.00 | 0.25 | 0.15 | 57 | 1023.8 |
| 20260501213001 | 6 | 325 | 11.3 | 29.0 | 0.00 | 0.25 | 0.15 | 55 | 1023.4 |
| 20260501212002 | 6 | 343 | 9.7 | 20.9 | 0.00 | 0.25 | 0.15 | 55 | 1023.6 |
| 20260501211002 | 6 | 334 | 8.0 | 27.4 | 0.00 | 0.25 | 0.15 | 57 | 1023.4 |
| 20260501210002 | 6 | 329 | 9.7 | 19.3 | 0.00 | 0.25 | 0.15 | 53 | 1023.4 |
| 20260501205002 | 6 | 14 | 8.0 | 19.3 | 0.00 | 0.25 | 0.15 | 50 | 1023.5 |
| 20260501202001 | 6 | 62 | 4.8 | 9.7 | 0.00 | 0.25 | 0.15 | 55 | 1023.5 |
| 20260501201002 | 6 | 14 | 4.8 | 14.5 | 0.00 | 0.25 | 0.15 | 54 | 1023.5 |
| 20260501200002 | 6 | 41 | 8.0 | 19.3 | 0.00 | 0.25 | 0.15 | 50 | 1023.5 |
| 20260501194002 | 6 | 29 | 9.7 | 16.1 | 0.00 | 0.25 | 0.15 | 56 | 1023.5 |
| 20260501193002 | 6 | 333 | 8.0 | 12.9 | 0.00 | 0.25 | 0.15 | 53 | 1023.5 |
| 20260501192002 | 5 | 85 | 4.8 | 12.9 | 0.00 | 0.25 | 0.15 | 51 | 1023.4 |